Weather History for Savanna, IL

Change the Weather History Date:

Friday, April 18, 2014

  Actual Average (KCWI) Record (KCWI)
Temperature  
Mean Temperature 46 °F -  
Max Temperature 61 °F 65 °F 91 °F (2002)
Min Temperature 31 °F 42 °F 22 °F (1983)
Degree Days  
Heating Degree Days 20    
Moisture  
Dew Point 32 °F    
Average Humidity 60    
Maximum Humidity 96    
Minimum Humidity 25    
Precipitation  
Precipitation 0.00 in - - ()
Sea Level Pressure  
Sea Level Pressure 30.31 in    
Wind  
Wind Speed 6 mph (North)    
Max Wind Speed 17 mph    
Max Gust Speed 25 mph    
Visibility 10 miles    
Events      
Averages and records for this station are not official NWS values.
T = Trace of Precipitation, MM = Missing Value Source: NWS Daily Summary

Daily Weather History Graph

Daily Weather History Graph

Search for Another Location

Airport:

Trip Planner

Search our weather history database for the weather conditions in past years. The results will help you decide how hot, cold, wet, or windy it might be!

Date:

Astronomy

Apr. 18, 2014 Rise Set
Actual Time 6:15 AM CDT 7:45 PM CDT
Civil Twilight 5:45 AM CDT 8:14 PM CDT
Nautical Twilight 5:10 AM CDT 8:49 PM CDT
Astronomical Twilight 4:33 AM CDT 9:27 PM CDT
Moon 11:32 PM CDT (4/18) 8:35 AM CDT (4/18)
Length of Visible Light 14h 28m
Length of Day
13h 29m
Waning Gibbous, 87% of the Moon is Illuminated
Apr 18
Waning Gibbous
Apr 22
Last Quarter
Apr 29
New
May 6
First Quarter
May 14
Full

Hourly Weather History & Observations

Time (CDT) Temp. Windchill Dew Point Humidity Pressure Visibility Wind Dir Wind Speed Gust Speed Precip Events Conditions
12:00 AM 43.2 °F 38.4 °F 34.0 °F 70% 30.29 in 10.0 mi NNW 8.1 mph - N/A   Clear
12:15 AM 42.6 °F 38.4 °F 33.8 °F 71% 30.29 in 10.0 mi NNW 6.9 mph - N/A   Clear
12:35 AM 41.4 °F 37.6 °F 33.4 °F 73% 30.29 in 10.0 mi NNW 5.8 mph - N/A   Clear
12:55 AM 41.0 °F 38.0 °F 33.1 °F 73% 30.29 in 10.0 mi North 4.6 mph - N/A   Clear
1:15 AM 39.7 °F 36.5 °F 32.9 °F 77% 30.29 in 10.0 mi North 4.6 mph - N/A   Clear
1:35 AM 38.5 °F 33.4 °F 32.5 °F 79% 30.29 in 10.0 mi North 6.9 mph - N/A   Clear
1:55 AM 38.3 °F 33.9 °F 32.5 °F 80% 30.29 in 10.0 mi NNW 5.8 mph - N/A   Clear
2:15 AM 37.6 °F 34.0 °F 32.2 °F 81% 30.30 in 10.0 mi North 4.6 mph - N/A   Clear
2:35 AM 36.7 °F 32.0 °F 32.2 °F 84% 30.29 in 10.0 mi North 5.8 mph - N/A   Clear
2:55 AM 36.1 °F 32.3 °F 32.0 °F 85% 30.29 in 10.0 mi North 4.6 mph - N/A   Clear
3:15 AM 36.7 °F 34.1 °F 32.4 °F 84% 30.30 in 10.0 mi NNW 3.5 mph - N/A   Clear
3:35 AM 35.8 °F 33.0 °F 32.0 °F 86% 30.30 in 10.0 mi NNW 3.5 mph - N/A   Clear
3:55 AM 36.3 °F 33.7 °F 32.0 °F 84% 30.29 in 10.0 mi North 3.5 mph - N/A   Clear
4:15 AM 35.4 °F 32.6 °F 32.0 °F 87% 30.29 in 10.0 mi NNW 3.5 mph - N/A   Clear
4:35 AM 34.9 °F 32.0 °F 32.0 °F 89% 30.30 in 10.0 mi NNW 3.5 mph - N/A   Clear
4:55 AM 34.2 °F 30.0 °F 31.5 °F 90% 30.30 in 10.0 mi NNW 4.6 mph - N/A   Clear
5:15 AM 32.9 °F 28.5 °F 30.9 °F 92% 30.30 in 7.0 mi NNW 4.6 mph - N/A   Clear
5:35 AM 33.8 °F 30.8 °F 32.0 °F 93% 30.31 in 7.0 mi NNW 3.5 mph - N/A   Clear
5:55 AM 34.2 °F 31.2 °F 32.0 °F 92% 30.32 in 7.0 mi NNW 3.5 mph - N/A   Clear
6:15 AM 33.6 °F 29.4 °F 31.8 °F 93% 30.32 in 7.0 mi North 4.6 mph - N/A   Clear
6:35 AM 31.1 °F 27.7 °F 29.1 °F 92% 30.33 in 5.0 mi North 3.5 mph - N/A   Clear
6:55 AM 32.7 °F 28.3 °F 31.8 °F 96% 30.34 in 5.0 mi NNW 4.6 mph - N/A   Clear
7:15 AM 34.7 °F 31.8 °F 32.4 °F 91% 30.35 in 7.0 mi North 3.5 mph - N/A   Clear
7:35 AM 36.5 °F 33.9 °F 33.1 °F 87% 30.35 in 7.0 mi North 3.5 mph - N/A   Clear
7:55 AM 37.8 °F 31.8 °F 33.1 °F 83% 30.35 in 10.0 mi NNE 8.1 mph - N/A   Clear
8:15 AM 38.8 °F 33.8 °F 32.5 °F 78% 30.36 in 10.0 mi North 6.9 mph - N/A   Clear
8:35 AM 40.8 °F 35.6 °F 32.5 °F 72% 30.37 in 10.0 mi North 8.1 mph - N/A   Clear
8:55 AM 41.7 °F 36.1 °F 32.5 °F 70% 30.37 in 10.0 mi NNE 9.2 mph - N/A   Clear
9:15 AM 43.0 °F 38.8 °F 32.9 °F 68% 30.37 in 10.0 mi ENE 6.9 mph - N/A   Clear
9:35 AM 44.6 °F 43.1 °F 33.8 °F 66% 30.36 in 10.0 mi NE 3.5 mph - N/A   Clear
10:15 AM 46.8 °F - 33.4 °F 60% 30.37 in 10.0 mi ENE 5.8 mph - N/A   Clear
10:35 AM 48.0 °F - 33.4 °F 57% 30.36 in 10.0 mi NE 5.8 mph - N/A   Clear
10:55 AM 49.3 °F - 34.0 °F 56% 30.36 in 10.0 mi NE 5.8 mph - N/A   Clear
11:15 AM 50.9 °F - 34.0 °F 52% 30.36 in 10.0 mi NNE 3.5 mph - N/A   Clear
11:35 AM 52.0 °F - 33.1 °F 49% 30.36 in 10.0 mi NNW 4.6 mph - N/A   Clear
11:55 AM 50.4 °F - 34.2 °F 54% 30.36 in 10.0 mi WSW 6.9 mph - N/A   Clear
12:15 PM 51.8 °F - 34.0 °F 51% 30.37 in 10.0 mi West 6.9 mph - N/A   Clear
12:35 PM 52.3 °F - 32.9 °F 48% 30.35 in 10.0 mi WSW 5.8 mph - N/A   Clear
12:55 PM 53.2 °F - 32.5 °F 45% 30.34 in 10.0 mi WSW 4.6 mph - N/A   Clear
1:15 PM 54.5 °F - 32.0 °F 42% 30.34 in 10.0 mi WNW 3.5 mph - N/A   Clear
1:35 PM 55.8 °F - 32.0 °F 41% 30.33 in 10.0 mi West 5.8 mph - N/A   Clear
1:55 PM 56.3 °F - 31.6 °F 39% 30.32 in 10.0 mi West 5.8 mph - N/A   Clear
2:15 PM 57.4 °F - 30.7 °F 36% 30.33 in 10.0 mi West 6.9 mph - N/A   Clear
2:35 PM 58.1 °F - 26.8 °F 30% 30.32 in 10.0 mi WSW 6.9 mph - N/A   Clear
2:55 PM 59.0 °F - 23.2 °F 25% 30.32 in 10.0 mi West 8.1 mph - N/A   Clear
3:15 PM 59.5 °F - 25.2 °F 27% 30.31 in 10.0 mi West 5.8 mph - N/A   Clear
3:35 PM 59.7 °F - 24.8 °F 26% 30.30 in 10.0 mi West 5.8 mph - N/A   Clear
3:55 PM 59.9 °F - 30.2 °F 33% 30.30 in 10.0 mi West 6.9 mph - N/A   Clear
4:15 PM 60.6 °F - 30.2 °F 32% 30.30 in 10.0 mi West 6.9 mph - N/A   Clear
4:35 PM 60.3 °F - 29.8 °F 32% 30.29 in 10.0 mi WSW 4.6 mph - N/A   Clear
4:55 PM 60.6 °F - 29.1 °F 30% 30.29 in 10.0 mi WNW 4.6 mph - N/A   Clear
5:15 PM 60.3 °F - 28.8 °F 30% 30.28 in 10.0 mi WSW 5.8 mph - N/A   Clear
5:35 PM 60.3 °F - 30.0 °F 32% 30.28 in 10.0 mi WSW 5.8 mph - N/A   Clear
5:55 PM 60.3 °F - 29.7 °F 31% 30.27 in 10.0 mi WSW 3.5 mph - N/A   Clear
6:15 PM 60.3 °F - 30.6 °F 33% 30.27 in 10.0 mi WSW 4.6 mph - N/A   Clear
6:35 PM 59.9 °F - 28.8 °F 31% 30.27 in 10.0 mi Calm Calm - N/A   Clear
6:55 PM 59.5 °F - 28.2 °F 30% 30.27 in 10.0 mi ENE 6.9 mph - N/A   Clear
7:15 PM 57.9 °F - 28.2 °F 32% 30.27 in 10.0 mi ENE 5.8 mph - N/A   Clear
7:35 PM 55.2 °F - 28.8 °F 36% 30.27 in 10.0 mi ENE 5.8 mph - N/A   Clear
7:55 PM 53.1 °F - 30.4 °F 42% 30.27 in 10.0 mi ENE 6.9 mph - N/A   Clear
8:15 PM 51.8 °F - 31.1 °F 45% 30.27 in 10.0 mi ENE 5.8 mph - N/A   Clear
8:35 PM 50.7 °F - 32.0 °F 49% 30.28 in 10.0 mi ENE 6.9 mph - N/A   Clear
8:55 PM 49.1 °F - 32.0 °F 52% 30.28 in 10.0 mi ENE 8.1 mph - N/A   Clear
9:15 PM 48.7 °F - 32.2 °F 53% 30.29 in 10.0 mi ENE 6.9 mph - N/A   Clear
9:35 PM 49.3 °F - 32.0 °F 51% 30.29 in 10.0 mi ENE 10.4 mph - N/A   Clear
9:55 PM 49.6 °F - 32.0 °F 51% 30.29 in 10.0 mi ENE 10.4 mph - N/A   Clear
10:15 PM 48.6 °F - 33.1 °F 55% 30.30 in 10.0 mi East 15.0 mph - N/A   Clear
10:35 PM 47.1 °F - 35.1 °F 63% 30.29 in 10.0 mi East 17.3 mph 25.3 mph N/A   Clear
10:55 PM 45.3 °F 39.7 °F 35.2 °F 68% 30.30 in 10.0 mi East 11.5 mph 19.6 mph N/A   Clear
11:15 PM 43.5 °F 38.3 °F 34.7 °F 71% 30.31 in 10.0 mi East 9.2 mph - N/A   Clear
11:35 PM 42.8 °F 35.4 °F 32.7 °F 68% 30.32 in 10.0 mi East 15.0 mph 21.9 mph N/A   Clear
11:55 PM 41.5 °F 37.8 °F 32.0 °F 69% 30.33 in 10.0 mi East 5.8 mph - N/A   Clear